Location: Chatou
(48.8898°N, 2.1586°E)
Time: 16:57:42
(UTC+00:00)

CSL-04 Rocket - Pass Details

Date: 03 February 2023
Orbit: 806 x 859 km, 98.8° (Epoch: 30 March)

Event Time Altitude Azimuth Distance (km) Brightness Sun altitude
Exits shadow 18:47:09 35° 92° (E) 1,299 4.1 -19.1°
Maximum altitude 18:48:13 39° 65° (ENE) 1,218 4.1 -19.3°
Drops below altitude 10° 18:53:13 10° 358° (N) 2,450 6.1 -20.1°
Sets 18:55:43 0° 351° (N) 3,397 6.9 -20.5°
